Starlink 3301

operational
NORAD ID: 50169 Int'l Des: 2021-125 Owner: SPXS Country: US Constellation: starlink
LEOCIRCULAR

Über Starlink 3301

Beschreibung wird geladen...

Live-Position

3D-Globus wird geladen...

Nächste Überflüge

Höhenverlauf

Altitude vs Time

uPlot chart will show altitude changes over time

Zweizeiliger Elementsatz

1 50169U 21125P 25259.13805626 .00000801 00000-0 68427-4 0 9996
2 50169 53.2182 312.7156 0001285 89.6254 270.4885 15.08839631210257
Epoch: 16. Sept. 2025 • Age: 12 hours

Aktueller Status

Höhe 545.9 km
Geschwindigkeit 7.59 km/s
Subsatellitenpunkt -20.66°S, 79.34°W
Startdatum 18. Dez. 2021
Alter 3.7 years
Typ internet

Technische Details

Klassifizierung Payload
Masse 290.00 kg
Trockenmasse 270.00 kg
Gesamtmasse 290.00 kg
Länge 0.20 m
Durchmesser 2.80 m
Spannweite 9.00 m
Form Box + pan
Hersteller SPXS
Bus-Typ Starlink
Phasenstatus In Orbit
Besitzer/Staat SPXS/US

Große Konstellationen

Loading constellations...